| time (UTC) | temp F | wind direction | speed MPH | gust MPH | rain 1hr in | rain 24hr in | rain mn in | humidity % | barometer mb |
| 20260504050750 | 54 | 182 | 5.0 | 8.0 | 0.00 | 0.00 | 0.00 | 47 | 1012.2 |
| 20260504050247 | 54 | 205 | 5.0 | 8.0 | 0.00 | 0.00 | 0.00 | 47 | 1012.1 |
| 20260504045744 | 54 | 306 | 0.0 | 0.0 | 0.00 | 0.00 | 0.00 | 47 | 1012.2 |
| 20260504045239 | 54 | 254 | 2.0 | 3.0 | 0.00 | 0.00 | 0.00 | 47 | 1012.3 |
| 20260504044737 | 54 | 200 | 0.0 | 2.0 | 0.00 | 0.00 | 0.00 | 46 | 1012.3 |
| 20260504044234 | 55 | 251 | 4.0 | 6.0 | 0.00 | 0.00 | 0.00 | 46 | 1012.0 |
| 20260504043731 | 54 | 219 | 3.0 | 6.0 | 0.00 | 0.00 | 0.00 | 46 | 1012.0 |
| 20260504043228 | 55 | 161 | 4.0 | 6.0 | 0.00 | 0.00 | 0.00 | 46 | 1012.2 |
| 20260504042726 | 55 | 287 | 3.0 | 4.0 | 0.00 | 0.00 | 0.00 | 46 | 1012.2 |
| 20260504042222 | 55 | 260 | 2.0 | 3.0 | 0.00 | 0.00 | 0.00 | 46 | 1012.0 |
| 20260504041718 | 55 | 165 | 4.0 | 9.0 | 0.00 | 0.00 | 0.00 | 46 | 1012.1 |
| 20260504041214 | 55 | 305 | 1.0 | 1.0 | 0.00 | 0.00 | 0.00 | 46 | 1012.0 |
| 20260504040711 | 55 | 212 | 6.0 | 9.0 | 0.00 | 0.00 | 0.00 | 45 | 1011.8 |
| 20260504040208 | 55 | 218 | 4.0 | 7.0 | 0.00 | 0.00 | 0.00 | 45 | 1012.0 |
| 20260504035704 | 55 | 206 | 2.0 | 4.0 | 0.00 | 0.00 | 0.00 | 45 | 1011.9 |
| 20260504035202 | 55 | 184 | 3.0 | 4.0 | 0.00 | 0.00 | 0.00 | 45 | 1012.0 |
| 20260504034659 | 55 | 215 | 3.0 | 7.0 | 0.00 | 0.00 | 0.00 | 44 | 1011.9 |
| 20260504034156 | 55 | 227 | 2.0 | 3.0 | 0.00 | 0.00 | 0.00 | 44 | 1012.0 |
| 20260504033654 | 56 | 275 | 3.0 | 4.0 | 0.00 | 0.00 | 0.00 | 44 | 1012.1 |
| 20260504033151 | 56 | 316 | 2.0 | 2.0 | 0.00 | 0.00 | 0.00 | 43 | 1011.8 |
| 20260504032647 | 56 | 209 | 3.0 | 6.0 | 0.00 | 0.00 | 0.00 | 43 | 1011.7 |
| 20260504032144 | 55 | 329 | 3.0 | 7.0 | 0.00 | 0.00 | 0.00 | 43 | 1011.8 |
| 20260504031642 | 56 | 307 | 0.0 | 1.0 | 0.00 | 0.00 | 0.00 | 43 | 1011.6 |
| 20260504031138 | 56 | 183 | 6.0 | 8.0 | 0.00 | 0.00 | 0.00 | 43 | 1011.7 |
| 20260504030635 | 56 | 269 | 5.0 | 7.0 | 0.00 | 0.00 | 0.00 | 43 | 1011.7 |
| 20260504030131 | 56 | 238 | 2.0 | 3.0 | 0.00 | 0.00 | 0.00 | 43 | 1011.8 |
| 20260504025628 | 56 | 310 | 2.0 | 3.0 | 0.00 | 0.00 | 0.00 | 41 | 1011.7 |
| 20260504025125 | 57 | 203 | 2.0 | 3.0 | 0.00 | 0.00 | 0.00 | 41 | 1011.6 |
| 20260504024622 | 56 | 174 | 6.0 | 8.0 | 0.00 | 0.00 | 0.00 | 41 | 1011.6 |
| 20260504024119 | 57 | 190 | 1.0 | 2.0 | 0.00 | 0.00 | 0.00 | 41 | 1011.7 |
| 20260504023616 | 57 | 266 | 1.0 | 1.0 | 0.00 | 0.00 | 0.00 | 40 | 1011.8 |
| 20260504023111 | 57 | 305 | 1.0 | 1.0 | 0.00 | 0.00 | 0.00 | 40 | 1011.9 |
| 20260504022608 | 57 | 207 | 5.0 | 8.0 | 0.00 | 0.00 | 0.00 | 40 | 1011.7 |
| 20260504022104 | 57 | 162 | 2.0 | 4.0 | 0.00 | 0.00 | 0.00 | 40 | 1011.9 |
| 20260504021602 | 57 | 294 | 4.0 | 4.0 | 0.00 | 0.00 | 0.00 | 39 | 1011.8 |
| 20260504021058 | 57 | 181 | 5.0 | 6.0 | 0.00 | 0.00 | 0.00 | 40 | 1011.7 |
| 20260504020555 | 57 | 179 | 3.0 | 4.0 | 0.00 | 0.00 | 0.00 | 40 | 1011.6 |
| 20260504020051 | 57 | 283 | 1.0 | 2.0 | 0.00 | 0.00 | 0.00 | 41 | 1011.9 |
| 20260504015548 | 57 | 268 | 3.0 | 4.0 | 0.00 | 0.00 | 0.00 | 41 | 1011.9 |
| 20260504015044 | 57 | 276 | 1.0 | 2.0 | 0.00 | 0.00 | 0.00 | 39 | 1011.7 |
| 20260504014540 | 57 | 210 | 2.0 | 2.0 | 0.00 | 0.00 | 0.00 | 39 | 1011.6 |
| 20260504014038 | 57 | 313 | 0.0 | 1.0 | 0.00 | 0.00 | 0.00 | 38 | 1012.0 |
| 20260504013535 | 57 | 191 | 3.0 | 3.0 | 0.00 | 0.00 | 0.00 | 37 | 1011.6 |
| 20260504013032 | 57 | 288 | 2.0 | 2.0 | 0.00 | 0.00 | 0.00 | 37 | 1011.4 |
| 20260504012529 | 58 | 226 | 2.0 | 3.0 | 0.00 | 0.00 | 0.00 | 37 | 1011.5 |
| 20260504012022 | 58 | 249 | 2.0 | 4.0 | 0.00 | 0.00 | 0.00 | 37 | 1011.6 |
| 20260504011518 | 58 | 220 | 1.0 | 2.0 | 0.00 | 0.00 | 0.00 | 36 | 1011.4 |
| 20260504011014 | 58 | 90 | 3.0 | 4.0 | 0.00 | 0.00 | 0.00 | 36 | 1011.2 |
| 20260504010510 | 58 | 0 | 1.0 | 2.0 | 0.00 | 0.00 | 0.00 | 36 | 1011.2 |
| 20260504010006 | 58 | 317 | 3.0 | 4.0 | 0.00 | 0.00 | 0.00 | 36 | 1011.0 |
| 20260504005503 | 58 | 231 | 1.0 | 2.0 | 0.00 | 0.00 | 0.00 | 36 | 1011.3 |
| 20260504005001 | 58 | 286 | 1.0 | 3.0 | 0.00 | 0.00 | 0.00 | 37 | 1011.1 |
| 20260504004458 | 58 | 265 | 1.0 | 2.0 | 0.00 | 0.00 | 0.00 | 37 | 1010.8 |
| 20260504003955 | 58 | 298 | 1.0 | 1.0 | 0.00 | 0.00 | 0.00 | 37 | 1010.9 |
| 20260504003451 | 58 | 239 | 1.0 | 1.0 | 0.00 | 0.00 | 0.00 | 37 | 1010.9 |
| 20260504002948 | 58 | 283 | 1.0 | 1.0 | 0.00 | 0.00 | 0.00 | 38 | 1010.8 |
| 20260504002445 | 59 | 191 | 4.0 | 4.0 | 0.00 | 0.00 | 0.00 | 38 | 1010.8 |
| 20260504001942 | 59 | 170 | 5.0 | 7.0 | 0.00 | 0.00 | 0.00 | 37 | 1010.6 |
| 20260504001440 | 59 | 208 | 7.0 | 13.0 | 0.00 | 0.00 | 0.00 | 37 | 1010.4 |
| 20260504000936 | 59 | 185 | 2.0 | 3.0 | 0.00 | 0.00 | 0.00 | 36 | 1010.5 |
| 20260504000433 | 59 | 197 | 4.0 | 6.0 | 0.00 | 0.00 | 0.00 | 38 | 1010.5 |
| 20260503235930 | 59 | 193 | 4.0 | 7.0 | 0.00 | 0.00 | 0.00 | 38 | 1010.4 |
| 20260503235428 | 59 | 343 | 1.0 | 1.0 | 0.00 | 0.00 | 0.00 | 37 | 1010.5 |
| 20260503234925 | 59 | 265 | 3.0 | 3.0 | 0.00 | 0.00 | 0.00 | 35 | 1010.2 |
| 20260503234423 | 59 | 266 | 2.0 | 2.0 | 0.00 | 0.00 | 0.00 | 33 | 1010.0 |
| 20260503233921 | 59 | 293 | 1.0 | 1.0 | 0.00 | 0.00 | 0.00 | 33 | 1010.2 |
| 20260503233417 | 60 | 267 | 1.0 | 2.0 | 0.00 | 0.00 | 0.00 | 33 | 1010.1 |
| 20260503232913 | 60 | 262 | 4.0 | 6.0 | 0.00 | 0.00 | 0.00 | 32 | 1010.0 |
| 20260503232411 | 60 | 288 | 4.0 | 6.0 | 0.00 | 0.00 | 0.00 | 33 | 1010.0 |
| 20260503231908 | 60 | 217 | 3.0 | 4.0 | 0.00 | 0.00 | 0.00 | 32 | 1009.8 |
| 20260503231405 | 60 | 292 | 2.0 | 3.0 | 0.00 | 0.00 | 0.00 | 33 | 1009.8 |
| 20260503230901 | 60 | 258 | 5.0 | 6.0 | 0.00 | 0.00 | 0.00 | 32 | 1009.9 |
| 20260503230358 | 60 | 259 | 2.0 | 3.0 | 0.00 | 0.00 | 0.00 | 33 | 1009.7 |
| 20260503225856 | 60 | 263 | 3.0 | 4.0 | 0.00 | 0.00 | 0.00 | 30 | 1010.0 |
| 20260503225352 | 60 | 236 | 3.0 | 6.0 | 0.00 | 0.00 | 0.00 | 30 | 1009.7 |
| 20260503224848 | 60 | 259 | 2.0 | 2.0 | 0.00 | 0.00 | 0.00 | 31 | 1009.6 |
| 20260503224345 | 61 | 250 | 5.0 | 7.0 | 0.00 | 0.00 | 0.00 | 30 | 1009.8 |
| 20260503223843 | 61 | 278 | 4.0 | 4.0 | 0.00 | 0.00 | 0.00 | 29 | 1009.9 |
| 20260503223341 | 62 | 276 | 9.0 | 11.0 | 0.00 | 0.00 | 0.00 | 28 | 1009.7 |
| 20260503222836 | 61 | 290 | 3.0 | 4.0 | 0.00 | 0.00 | 0.00 | 29 | 1009.9 |
| 20260503222335 | 60 | 322 | 4.0 | 8.0 | 0.00 | 0.00 | 0.00 | 28 | 1009.4 |
| 20260503221832 | 60 | 249 | 4.0 | 7.0 | 0.00 | 0.00 | 0.00 | 29 | 1009.5 |
| 20260503221331 | 60 | 313 | 4.0 | 4.0 | 0.00 | 0.00 | 0.00 | 29 | 1009.7 |
| 20260503220826 | 61 | 287 | 4.0 | 6.0 | 0.00 | 0.00 | 0.00 | 28 | 1009.6 |
| 20260503220324 | 61 | 309 | 4.0 | 4.0 | 0.00 | 0.00 | 0.00 | 28 | 1009.7 |
| 20260503215820 | 60 | 170 | 5.0 | 6.0 | 0.00 | 0.00 | 0.00 | 27 | 1009.8 |
| 20260503215318 | 60 | 152 | 3.0 | 4.0 | 0.00 | 0.00 | 0.00 | 29 | 1009.9 |
| 20260503214815 | 60 | 250 | 6.0 | 8.0 | 0.00 | 0.00 | 0.00 | 28 | 1009.8 |
| 20260503214312 | 60 | 234 | 8.0 | 9.0 | 0.00 | 0.00 | 0.00 | 29 | 1009.8 |
| 20260503213810 | 60 | 282 | 7.0 | 9.0 | 0.00 | 0.00 | 0.00 | 29 | 1009.5 |
| 20260503213307 | 60 | 249 | 8.0 | 9.0 | 0.00 | 0.00 | 0.00 | 29 | 1009.9 |
| 20260503212758 | 60 | 243 | 3.0 | 4.0 | 0.00 | 0.00 | 0.00 | 29 | 1009.7 |
| 20260503212256 | 60 | 266 | 4.0 | 6.0 | 0.00 | 0.00 | 0.00 | 32 | 1009.4 |
| 20260503211753 | 60 | 281 | 5.0 | 6.0 | 0.00 | 0.00 | 0.00 | 29 | 1009.6 |
| 20260503211250 | 60 | 276 | 5.0 | 8.0 | 0.00 | 0.00 | 0.00 | 31 | 1009.4 |
| 20260503210744 | 60 | 250 | 7.0 | 9.0 | 0.00 | 0.00 | 0.00 | 30 | 1009.6 |
| 20260503210242 | 59 | 300 | 4.0 | 7.0 | 0.00 | 0.00 | 0.00 | 31 | 1009.7 |
| 20260503205743 | 60 | 272 | 5.0 | 6.0 | 0.00 | 0.00 | 0.00 | 30 | 1009.4 |
| 20260503205239 | 60 | 283 | 6.0 | 7.0 | 0.00 | 0.00 | 0.00 | 30 | 1009.5 |
| 20260503204736 | 60 | 237 | 9.0 | 11.0 | 0.00 | 0.00 | 0.00 | 31 | 1009.7 |
| 20260503204233 | 59 | 174 | 5.0 | 7.0 | 0.00 | 0.00 | 0.00 | 32 | 1009.3 |
| 20260503203731 | 60 | 259 | 4.0 | 6.0 | 0.00 | 0.00 | 0.00 | 29 | 1009.5 |
| 20260503203228 | 59 | 275 | 9.0 | 11.0 | 0.00 | 0.00 | 0.00 | 30 | 1009.7 |
| 20260503202725 | 60 | 227 | 11.0 | 15.0 | 0.00 | 0.00 | 0.00 | 31 | 1009.8 |
| 20260503202223 | 59 | 207 | 5.0 | 6.0 | 0.00 | 0.00 | 0.00 | 31 | 1009.6 |
| 20260503201721 | 59 | 151 | 6.0 | 9.0 | 0.00 | 0.00 | 0.00 | 32 | 1009.6 |
| 20260503201218 | 59 | 256 | 6.0 | 8.0 | 0.00 | 0.00 | 0.00 | 31 | 1009.6 |
| 20260503200714 | 60 | 241 | 6.0 | 8.0 | 0.00 | 0.00 | 0.00 | 31 | 1009.9 |
| 20260503200211 | 59 | 254 | 2.0 | 2.0 | 0.00 | 0.00 | 0.00 | 32 | 1009.8 |
| 20260503195707 | 59 | 275 | 2.0 | 3.0 | 0.00 | 0.00 | 0.00 | 33 | 1009.7 |
| 20260503195205 | 58 | 268 | 5.0 | 7.0 | 0.00 | 0.00 | 0.00 | 32 | 1009.9 |
| 20260503194701 | 58 | 259 | 5.0 | 6.0 | 0.00 | 0.00 | 0.00 | 33 | 1009.9 |
| 20260503194157 | 59 | 277 | 5.0 | 8.0 | 0.00 | 0.00 | 0.00 | 32 | 1009.9 |
| 20260503193654 | 57 | 258 | 4.0 | 6.0 | 0.00 | 0.00 | 0.00 | 33 | 1010.1 |
| 20260503193149 | 58 | 312 | 7.0 | 9.0 | 0.00 | 0.00 | 0.00 | 33 | 1009.9 |
| 20260503192645 | 58 | 310 | 5.0 | 8.0 | 0.00 | 0.00 | 0.00 | 32 | 1009.9 |
| 20260503192141 | 58 | 244 | 8.0 | 9.0 | 0.00 | 0.00 | 0.00 | 33 | 1010.1 |
| 20260503191638 | 58 | 216 | 4.0 | 7.0 | 0.00 | 0.00 | 0.00 | 33 | 1010.1 |
| 20260503191135 | 57 | 199 | 6.0 | 8.0 | 0.00 | 0.00 | 0.00 | 34 | 1010.1 |
| 20260503190632 | 57 | 233 | 10.0 | 13.0 | 0.00 | 0.00 | 0.00 | 35 | 1010.1 |
| 20260503190129 | 58 | 235 | 5.0 | 7.0 | 0.00 | 0.00 | 0.00 | 34 | 1010.2 |
| 20260503185625 | 58 | 259 | 4.0 | 6.0 | 0.00 | 0.00 | 0.00 | 34 | 1010.1 |
| 20260503185120 | 56 | 215 | 7.0 | 14.0 | 0.00 | 0.00 | 0.00 | 35 | 1010.2 |
| 20260503184610 | 55 | 243 | 6.0 | 8.0 | 0.00 | 0.00 | 0.00 | 37 | 1010.4 |
| 20260503184107 | 56 | 261 | 6.0 | 8.0 | 0.00 | 0.00 | 0.00 | 36 | 1010.5 |
| 20260503183603 | 56 | 200 | 5.0 | 6.0 | 0.00 | 0.00 | 0.00 | 36 | 1010.6 |
| 20260503183101 | 55 | 286 | 3.0 | 3.0 | 0.00 | 0.00 | 0.00 | 37 | 1010.6 |
| 20260503182559 | 54 | 253 | 6.0 | 8.0 | 0.00 | 0.00 | 0.00 | 38 | 1010.8 |
| 20260503182057 | 56 | 234 | 7.0 | 9.0 | 0.00 | 0.00 | 0.00 | 36 | 1010.5 |
| 20260503181554 | 55 | 274 | 4.0 | 6.0 | 0.00 | 0.00 | 0.00 | 38 | 1010.5 |
| 20260503181050 | 54 | 248 | 6.0 | 9.0 | 0.00 | 0.00 | 0.00 | 39 | 1010.9 |
| 20260503180547 | 55 | 259 | 5.0 | 7.0 | 0.00 | 0.00 | 0.00 | 38 | 1010.5 |
| 20260503180045 | 54 | 295 | 5.0 | 7.0 | 0.00 | 0.00 | 0.00 | 38 | 1010.7 |
| 20260503175542 | 55 | 296 | 7.0 | 9.0 | 0.00 | 0.00 | 0.00 | 39 | 1010.7 |
| 20260503175039 | 54 | 275 | 6.0 | 10.0 | 0.00 | 0.00 | 0.00 | 40 | 1010.7 |
| 20260503174536 | 54 | 316 | 4.0 | 6.0 | 0.00 | 0.00 | 0.00 | 39 | 1010.6 |
| 20260503174032 | 53 | 280 | 3.0 | 3.0 | 0.00 | 0.00 | 0.00 | 41 | 1010.4 |
| 20260503173527 | 54 | 229 | 7.0 | 13.0 | 0.00 | 0.00 | 0.00 | 41 | 1010.7 |
| 20260503173024 | 53 | 218 | 6.0 | 9.0 | 0.00 | 0.00 | 0.00 | 40 | 1010.6 |
| 20260503172522 | 53 | 239 | 6.0 | 8.0 | 0.00 | 0.00 | 0.00 | 40 | 1010.6 |
| 20260503172018 | 53 | 212 | 6.0 | 7.0 | 0.00 | 0.00 | 0.00 | 41 | 1010.7 |
| 20260503171515 | 53 | 244 | 4.0 | 7.0 | 0.00 | 0.00 | 0.00 | 40 | 1010.8 |
| 20260503171012 | 53 | 260 | 5.0 | 6.0 | 0.00 | 0.00 | 0.00 | 40 | 1010.7 |
| 20260503170508 | 53 | 262 | 4.0 | 6.0 | 0.00 | 0.00 | 0.00 | 41 | 1010.8 |
| 20260503150901 | 52 | 285 | 2.0 | 2.0 | 0.00 | 0.00 | 0.00 | 40 | 1011.2 |
| 20260503150357 | 51 | 295 | 4.0 | 6.0 | 0.00 | 0.00 | 0.00 | 40 | 1011.0 |
| 20260503131250 | 51 | 238 | 4.0 | 6.0 | 0.00 | 0.00 | 0.00 | 50 | 1011.4 |
| 20260503130748 | 50 | 299 | 2.0 | 3.0 | 0.00 | 0.00 | 0.00 | 52 | 1011.3 |
| 20260503130245 | 49 | 278 | 3.0 | 3.0 | 0.00 | 0.00 | 0.00 | 52 | 1011.5 |
| 20260503120211 | 47 | 251 | 4.0 | 6.0 | 0.00 | 0.00 | 0.00 | 54 | 1011.1 |
| 20260503110639 | 46 | 267 | 7.0 | 9.0 | 0.00 | 0.00 | 0.00 | 57 | 1010.6 |
| 20260503110136 | 45 | 318 | 3.0 | 3.0 | 0.00 | 0.00 | 0.00 | 58 | 1010.8 |
| 20260503081446 | 48 | 297 | 7.0 | 9.0 | 0.00 | 0.00 | 0.00 | 51 | 1009.4 |
| 20260503080943 | 48 | 299 | 2.0 | 3.0 | 0.00 | 0.00 | 0.00 | 52 | 1009.5 |
| 20260503080439 | 48 | 294 | 2.0 | 2.0 | 0.00 | 0.00 | 0.00 | 52 | 1009.5 |
| 20260503072910 | 49 | 271 | 3.0 | 4.0 | 0.00 | 0.00 | 0.00 | 51 | 1009.5 |
| 20260503072408 | 49 | 295 | 2.0 | 3.0 | 0.00 | 0.00 | 0.00 | 50 | 1009.6 |
| 20260503071904 | 49 | 293 | 4.0 | 6.0 | 0.00 | 0.00 | 0.00 | 49 | 1009.3 |
| 20260503071401 | 49 | 293 | 4.0 | 4.0 | 0.00 | 0.00 | 0.00 | 49 | 1009.3 |
| 20260503070856 | 49 | 258 | 5.0 | 7.0 | 0.00 | 0.00 | 0.00 | 49 | 1009.4 |
| 20260503070349 | 49 | 286 | 5.0 | 6.0 | 0.00 | 0.00 | 0.00 | 48 | 1009.4 |